Voltar ao catálogo

STARLINK-5547

AtivoComunicaçõesVLEO
NORAD 55352·PAYLOAD·🇺🇸 United States

Lançado Jan 26, 2023 de Cape Canaveral Space Force Station

Loading…

Próximas Passagens (próximas 24 horas)

TLE

AtualizadoSource: CelesTrak SupGP

Época: Sep 14, 2026, 22:15 UTC

1 55352C 23013X   26257.92756944 -.00012862  00000+0 -46587-3 0  2577
2 55352  43.0015 311.2899 0001313 266.2234 136.3432 15.27583292    18

Acompanhe STARLINK-5547 em tempo real com AllMySat

Download on the App Store